Location: Chatham
(41.0995°N, 82.0243°W)
Time: 04:53:25
(UTC+00:00)

Daily predictions for brighter satellites

Satellite Brightness Start Highest point End
(mag) Time Altitude Azimuth Time Altitude Azimuth Time Altitude Azimuth
ISS -2.1 00:00:15 10° NW 00:02:04 27° NNW 00:02:04 27° NNW
Cosmos 2266 Rocket 4.0 00:00:04 10° N 00:06:24 62° E 00:12:44 10° SSE
SL-16 R/B 3.3 00:01:53 10° N 00:05:05 27° NNE 00:05:05 27° NNE
Cosmos 2082 Rocket 3.1 00:02:12 10° SW 00:07:40 46° WNW 00:11:58 16° N
ATLAS 5 CENTAUR R/B 3.7 00:05:16 10° NNW 00:08:17 22° N 00:08:17 22° N
Meteor 2-15 Rocket 4.3 00:06:56 10° S 00:13:00 71° E 00:15:51 33° NNE
Cosmos 1328 Rocket 4.3 00:12:41 10° SSW 00:17:01 52° W 00:19:19 26° NNW
CZ-2C R/B 3.3 00:17:33 10° SW 00:19:37 19° S 00:19:37 19° S
Meteor 1-27 Rocket 4.3 00:15:37 10° S 00:19:10 39° SSE 00:19:10 39° SSE
Cosmos 2278 3.9 00:15:22 10° NNW 00:21:04 71° WSW 00:26:42 10° SSE
Lacrosse 5 rocket 3.6 00:18:05 10° NNW 00:18:55 15° NNW 00:18:55 15° NNW
ARGOS 4.1 00:22:03 10° S 00:27:15 47° W 00:32:28 10° NNW
IRAS Rocket 4.2 00:28:34 65° SSE 00:28:34 65° SSE 00:33:21 10° S
COSMOS 2455 4.4 00:27:58 10° WSW 00:33:10 30° NW 00:36:35 18° N
Cosmos 1655 Rocket 4.2 00:32:36 10° NNW 00:39:00 72° W 00:45:18 10° S
DMSP B5D2-2 4.2 00:40:33 69° W 00:40:33 69° W 00:45:34 10° SSW
GEOS 3 Rocket 4.3 00:46:40 48° NW 00:46:40 48° NW 00:50:22 10° NW
CZ-4C R/B 3.8 01:09:49 10° NW 01:17:03 47° WSW 01:21:47 25° S
CENTAUR R/B 4.3 08:51:33 25° NE 08:51:33 25° NE 08:54:23 10° NE
Cosmos 2344 4.1 09:14:06 46° NNE 09:14:06 46° NNE 09:19:14 10° NE
USA 238 DEB 3.9 09:40:07 58° NNE 09:40:07 58° NNE 09:45:28 10° NE
USA 238 3.9 09:40:11 58° NNE 09:40:11 58° NNE 09:45:34 10° NE
BREEZE-M DEB (TANK) 3.7 09:43:04 54° ENE 09:43:04 54° ENE 09:52:16 10° ESE
USA 215 4.3 09:43:12 10° E 09:48:59 35° NNE 09:50:35 31° N
Cosmos 921 Rocket 4.4 09:53:48 36° ENE 09:53:48 36° ENE 09:57:56 10° SE
Cosmos 1867 3.9 10:03:11 57° S 10:03:11 57° S 10:07:32 10° SSE
Cosmos 2208 Rocket 4.1 10:02:49 70° SSE 10:02:49 70° SSE 10:07:32 10° SSE
Cosmos 2369 Rocket 2.3 10:05:54 31° S 10:08:37 73° ESE 10:14:12 10° NNE
NOSS 3-3 (C) 4.5 10:11:46 48° NW 10:14:13 73° WSW 10:22:46 10° SSE
Cosmos 1486 Rocket 4.2 10:09:57 10° S 10:15:12 70° ESE 10:20:28 10° NNE
Cosmos 1656 Rocket 3.8 10:19:42 10° SSW 10:25:03 71° ESE 10:30:29 10° NNE
Iridium 2 4.0 10:22:27 10° S 10:26:11 64° E 10:26:47 54° NE
COSMO-SKYMED 1 2.9 10:28:21 10° SSE 10:32:38 63° ENE 10:35:30 20° N
Cosmos 1943 Rocket 3.4 10:35:16 26° NNW 10:35:16 26° NNW 10:38:21 10° N
CZ-2C R/B 2.9 10:28:38 10° SSE 10:34:06 71° ENE 10:39:29 10° N
CENTAUR R/B 3.2 10:38:46 32° NW 10:38:56 32° NW 10:45:13 10° NNE
Envisat 2.9 10:35:31 10° NNE 10:40:38 86° WNW 10:45:43 10° SSW
TSX-5 4.3 10:38:24 33° NNW 10:40:58 82° WSW 10:45:28 10° SSE
Cosmos 968 Rocket 4.1 10:45:20 34° NW 10:45:20 34° NW 10:49:03 10° N
Cosmos 2098 Rocket 2.8 10:41:28 10° SSW 10:45:14 74° W 10:50:03 10° N
DELTA 2 R/B (1) 3.8 10:47:13 29° WSW 10:50:00 65° SSE 10:55:29 10° E
Genesis I 3.8 10:52:06 39° WSW 10:52:06 39° WSW 10:55:43 10° S
Cosmos 2279 Rocket 3.9 10:48:02 10° N 10:54:15 89° W 11:00:27 10° S
SKYMED 3 4.4 10:52:25 10° S 10:56:44 69° W 10:59:53 18° NNW
NOSS 3-2 (C) 4.2 11:00:55 27° WNW 11:02:05 29° NW 11:07:40 10° NNE
Cosmos 1812 3.0 11:03:50 37° WNW 11:04:35 42° W 11:08:12 10° SSW
CBERS 1 LM4 rocket 4.4 11:01:21 10° N 11:06:10 61° WNW 11:11:08 10° SSW
Cosmos 1515 Rocket 4.2 11:02:34 10° N 11:06:52 56° E 11:11:07 10° SSE
MOS 1-B Rocket 4.3 11:00:54 10° S 11:07:02 45° W 11:12:34 10° NNW
ATLAS 3B R/B 3.8 11:01:06 10° S 11:07:11 45° ESE 11:13:31 10° NE
Cosmos 1354 Rocket 3.9 11:03:25 10° SSW 11:08:41 82° WNW 11:14:01 10° NNE
SJ 16-02 2.5 11:05:36 10° S 11:09:46 45° ESE 11:13:57 10° NNE
Cosmos 1634 Rocket 4.3 11:05:03 10° NNW 11:10:52 41° W 11:16:37 10° SSW
Meteor PRIRODA 4.3 11:08:19 10° NNE 11:11:54 57° E 11:15:28 10° S
ADEOS 3.5 11:09:34 10° NNE 11:14:49 84° WNW 11:20:02 10° SSW
CZ-4B R/B 4.4 11:11:29 10° N 11:15:43 44° WNW 11:19:58 10° SW
Landsat 5 3.7 11:13:18 10° S 11:17:43 54° W 11:22:08 10° NNW
Meteor 2-6 Rocket 4.1 11:12:36 10° NNW 11:17:54 57° W 11:23:09 10° S
CZ-4C R/B 2.7 11:16:47 10° S 11:19:53 60° W 11:22:17 16° NNW
SKYMED 2 4.1 11:16:44 10° SSW 11:20:45 37° W 11:24:06 14° NW
SL-8 R/B 3.8 11:17:47 22° NW 11:20:52 68° NNE 11:25:37 10° ESE
ATLAS 5 CENTAUR R/B 1.9 11:17:30 10° SSW 11:21:12 58° ESE 11:25:15 10° NE
Cosmos 1500 Rocket 4.2 11:19:50 10° S 11:24:12 61° E 11:28:38 10° NNE
Meteor 1-31 Rocket 3.5 11:23:22 10° N 11:26:48 30° WNW 11:30:15 10° SW
CZ-2C R/B 3.0 11:22:34 10° NNE 11:27:29 87° E 11:32:38 10° SSW
Meteor 2-15 4.4 11:22:35 10° NNW 11:28:38 73° W 11:34:38 10° S
SJ-7 4.4 11:26:53 10° N 11:31:02 64° WNW 11:35:06 10° SSW
USA 215 3.3 11:25:00 10° SE 11:31:32 87° SW 11:37:55 11° NW
Cosmos 921 Rocket 4.4 11:30:39 18° WNW 11:31:48 20° W 11:35:00 10° SW
Cosmos 1833 4.3 11:27:41 10° NNW 11:33:18 60° WSW 11:38:55 10° S
H-2A R/B 4.2 11:31:40 10° NNW 11:34:45 17° W 11:36:43 10° WSW
Alouette 2 Rocket 4.1 11:33:52 10° N 11:37:29 48° ENE 11:40:59 10° SSE
H-2A R/B 2.3 11:34:00 10° SSE 11:38:12 73° ENE 11:42:33 10° N
Cosmos 1862 4.5 11:35:26 10° SW 11:38:29 21° WNW 11:41:33 10° NNW
Meteor 1-10 Rocket 4.3 11:33:25 10° NNW 11:38:47 53° W 11:44:09 10° S
Meteor 2-19 Rocket 4.4 11:34:08 10° SSW 11:40:08 65° W 11:46:09 10° N
Cosmos 1151 Rocket 4.4 11:42:45 11° NW 11:45:45 19° W 11:48:53 10° SW
H-2A R/B 3.7 11:42:09 10° NNE 11:46:40 36° E 11:51:10 10° SSE
Cosmos 2297 Rocket 4.1 11:46:09 10° N 11:50:44 25° NE 11:55:19 10° ESE
BREEZE-M DEB (TANK) 3.9 11:41:05 11° WNW 11:52:45 86° SSW 11:56:15 10° SE
Cosmos 2369 Rocket 3.5 11:49:27 10° W 11:53:14 18° NW 11:57:03 10° N
SL-27 R/B 2.6 11:51:28 10° NNW 11:54:58 54° WSW 11:58:25 10° S
